User: anonymous   Login
Location: Unspecified
(0.0000°N, 0.0000°E)
Time: 14:21:17
(UTC+00:00)
Language:

WGS 9 (USA 275) - Orbit

View from above orbital plane
View from above orbital plane
View from above satellite
View from above satellite

Ground track
Ground track

The orbit data is extracted from the following two-line orbital elements,

1 42075U 17016A   18213.74734407 0.00000000  00000-0  00000-0 0    07
2 42075   0.0262   9.1597 0003577  34.0976 325.9228  1.00270000    03
Epoch (UTC): 01 August 2018 17:56:10
Eccentricity: 0.0003577
inclination: 0.0262°
perigee height: 35771 km
apogee height: 35802 km
right ascension of ascending node: 9.1597°
argument of perigee: 34.0976°
revolutions per day: 1.00270000
mean anomaly at epoch: 325.9228°
orbit number at epoch: 0

The dashed part of the orbit path shows where the satellite is in the earth's shadow,  

DLR